Location: Hurstbourne Priors
(51.2000°N, 1.3667°W)
Time: 22:11:36
(UTC+00:00)

Altair - Pass Details

Date: 16 April 2021
Orbit: 1501 x 1683 km, 47.2° (Epoch: 13 May)

Event Time Altitude Azimuth Distance (km) Brightness Sun altitude
Rises 12:49:42 0° 286° (WNW) 4,730 10.1 48.1°
Reaches altitude 10° 12:53:04 10° 279° (W) 3,721 9.7 48.0°
Maximum altitude 13:01:19 37° 216° (SW) 2,188 10.3 47.5°
Drops below altitude 10° 13:09:26 10° 153° (SSE) 3,644 10.0 47.1°
Sets 13:12:42 0° 146° (SE) 4,622 10.3 46.9°
